Flag for U.S.A. Weather past 2 weeks in Wilmington, Delaware, U.S.A.

Now
21 °F

Clear.


Feels Like: 21 °F
Forecast: 16 / 34 °F
Wind: No wind

Location: New Castle County Airport

Current Time: Jan 29, 2015 at 3:41:58 AM

Latest Report: Jan 29, 2015 at 2:51 AM


Visibility: 10 mi

Pressure: 30.32 "Hg

Humidity: 52%

Dew point: 6 °F

Location of WilmingtonLocation

Historic Weather in Wilmington — Graph

°F

Wilmington temperature yesterday

Maximum temperature yesterday: 34 °F (at 2:51 PM)
Minimum temperature yesterday: 19 °F (at 3:51 AM)
Average temperature yesterday: 26 °F

Past Weeks' High & Low Weather Summary

 TemperatureHumidityPressure
High47 °F (Jan 25, 11:51 AM)97% (Jan 18, 9:51 AM)30.51 "Hg (Jan 18, 9:51 AM)
Low19 °F (Jan 17, 4:51 AM)25% (Jan 28, 2:51 PM)29.37 "Hg (Jan 24, 1:51 PM)
Average32 °F69%30.03 "Hg
* Reported Jan 14 1:58 AM — Jan 29 1:51 AM, Wilmington, Weather by CustomWeather, © 2014

Note: Actual official high and low records may vary slightly from our data, if they occured in-between our weather recording intervals... More about our weather records

Advertising

Wilmington weather history for previous 24 hours

 ConditionsComfort  
Time TempWeatherWind HumidityBarometerVisibility
1:51 AM
Jan 29
22 °FClear.3 mph48%30.32 "Hg10 mi
12:51 AM23 °FClear.6 mph46%30.31 "Hg10 mi
11:51 PM
Jan 28
25 °FClear.6 mph40%30.31 "Hg10 mi
10:51 PM25 °FClear.5 mph42%30.31 "Hg10 mi
9:51 PM25 °FClear.5 mph44%30.31 "Hg10 mi
8:51 PM27 °FClear.5 mph37%30.29 "Hg10 mi
7:51 PM26 °FClear.7 mph40%30.27 "Hg10 mi
6:51 PM26 °FClear.9 mph40%30.26 "Hg10 mi
5:51 PM28 °FClear.9 mph35%30.24 "Hg10 mi
4:51 PM32 °FSunny.15 mph27%30.21 "Hg10 mi
3:51 PM33 °FSunny.18 mph26%30.19 "Hg10 mi
2:51 PM34 °FSunny.13 mph25%30.17 "Hg10 mi
1:51 PM33 °FSunny.18 mph28%30.16 "Hg10 mi
12:51 PM32 °FSunny.14 mph27%30.16 "Hg10 mi
11:51 AM30 °FSunny.18 mph30%30.17 "Hg10 mi
10:51 AM28 °FSunny.17 mph31%30.17 "Hg10 mi
9:51 AM27 °FSunny.18 mph34%30.16 "Hg10 mi
8:51 AM24 °FSunny.16 mph38%30.13 "Hg10 mi
7:51 AM20 °FSunny.20 mph43%30.11 "Hg10 mi
6:51 AM20 °FClear.21 mph43%30.08 "Hg10 mi
5:51 AM19 °FClear.15 mph47%30.06 "Hg10 mi
4:51 AM20 °FClear.14 mph45%30.03 "Hg10 mi
3:51 AM19 °FClear.13 mph52%30.01 "Hg10 mi
Weather by CustomWeather, © 2014

See weather overviewHow to use our weather pages